Time,TemperatureF,DewpointF,PressureIn,WindDirection,WindDirectionDegrees,WindSpeedMPH,WindSpeedGustMPH,Humidity,HourlyPrecipIn,Conditions,Clouds,dailyrainin,SoftwareType,DateUTC
2013-04-29 00:01:00,28.9,19.0,30.32,NE,45,0.0,1.0,66,0.00,,,0.00,Weather View 32 v70,2013-04-29 08:01:00,
2013-04-29 00:06:00,28.9,19.4,30.32,NE,45,0.0,1.0,67,0.00,,,0.00,Weather View 32 v70,2013-04-29 08:06:00,
2013-04-29 00:11:00,28.9,19.4,30.32,NE,45,0.0,1.0,67,0.00,,,0.00,Weather View 32 v70,2013-04-29 08:11:00,
2013-04-29 00:16:00,28.4,18.8,30.32,NE,45,0.0,1.0,67,0.00,,,0.00,Weather View 32 v70,2013-04-29 08:16:00,
2013-04-29 00:21:00,28.2,19.4,30.32,NE,45,0.0,1.0,69,0.00,,,0.00,Weather View 32 v70,2013-04-29 08:21:00,
2013-04-29 00:26:00,28.2,19.7,30.32,NE,45,0.0,1.0,70,0.00,,,0.00,Weather View 32 v70,2013-04-29 08:26:00,
2013-04-29 00:31:00,28.2,19.7,30.32,NE,45,0.0,1.0,70,0.00,,,0.00,Weather View 32 v70,2013-04-29 08:31:00,
2013-04-29 00:36:00,28.0,19.5,30.32,NE,45,0.0,1.0,70,0.00,,,0.00,Weather View 32 v70,2013-04-29 08:36:00,
2013-04-29 00:41:00,28.2,19.7,30.32,NE,45,0.0,1.0,70,0.00,,,0.00,Weather View 32 v70,2013-04-29 08:41:00,
2013-04-29 00:46:00,27.9,19.3,30.32,NE,45,0.0,1.0,70,0.00,,,0.00,Weather View 32 v70,2013-04-29 08:46:00,
2013-04-29 00:51:00,27.9,19.3,30.32,NE,45,0.0,0.0,70,0.00,,,0.00,Weather View 32 v70,2013-04-29 08:51:00,
2013-04-29 00:56:00,27.7,19.5,30.32,NE,45,0.0,0.0,71,0.00,,,0.00,Weather View 32 v70,2013-04-29 08:56:00,
2013-04-29 01:01:00,27.9,19.3,30.32,NE,45,0.0,1.0,70,0.00,,,0.00,Weather View 32 v70,2013-04-29 09:01:00,
2013-04-29 01:06:00,27.5,19.0,30.33,NE,45,0.0,1.0,70,0.00,,,0.00,Weather View 32 v70,2013-04-29 09:06:00,
2013-04-29 01:11:00,27.1,18.7,30.33,NE,45,0.0,1.0,70,0.00,,,0.00,Weather View 32 v70,2013-04-29 09:11:00,
2013-04-29 01:16:00,27.1,19.0,30.33,NE,45,0.0,1.0,71,0.00,,,0.00,Weather View 32 v70,2013-04-29 09:16:00,
2013-04-29 01:21:00,26.8,18.6,30.33,NE,45,0.0,1.0,71,0.00,,,0.00,Weather View 32 v70,2013-04-29 09:21:00,
2013-04-29 01:26:00,26.8,18.3,30.32,NE,45,0.0,1.0,70,0.00,,,0.00,Weather View 32 v70,2013-04-29 09:26:00,
2013-04-29 01:31:00,26.8,19.0,30.32,NE,45,0.0,1.0,72,0.00,,,0.00,Weather View 32 v70,2013-04-29 09:31:00,
2013-04-29 01:36:00,26.6,18.8,30.32,NE,45,0.0,1.0,72,0.00,,,0.00,Weather View 32 v70,2013-04-29 09:36:00,
2013-04-29 01:41:00,26.8,19.0,30.32,NE,45,0.0,1.0,72,0.00,,,0.00,Weather View 32 v70,2013-04-29 09:41:00,
2013-04-29 01:46:00,26.4,18.9,30.33,NE,45,0.0,1.0,73,0.00,,,0.00,Weather View 32 v70,2013-04-29 09:46:00,
2013-04-29 01:51:00,26.2,18.8,30.33,NE,45,0.0,1.0,73,0.00,,,0.00,Weather View 32 v70,2013-04-29 09:51:00,
2013-04-29 01:56:00,26.2,18.4,30.33,NE,45,0.0,1.0,72,0.00,,,0.00,Weather View 32 v70,2013-04-29 09:56:00,
2013-04-29 02:01:00,26.1,18.6,30.33,NE,45,0.0,0.0,73,0.00,,,0.00,Weather View 32 v70,2013-04-29 10:01:00,
2013-04-29 02:06:00,26.1,18.9,30.33,NE,45,1.0,1.0,74,0.00,,,0.00,Weather View 32 v70,2013-04-29 10:06:00,
2013-04-29 02:11:00,26.1,18.9,30.33,NE,45,1.0,1.0,74,0.00,,,0.00,Weather View 32 v70,2013-04-29 10:11:00,
2013-04-29 02:16:00,25.7,18.2,30.33,NE,45,1.0,1.0,73,0.00,,,0.00,Weather View 32 v70,2013-04-29 10:16:00,
2013-04-29 02:21:00,25.5,18.1,30.33,NE,45,0.0,1.0,73,0.00,,,0.00,Weather View 32 v70,2013-04-29 10:21:00,
2013-04-29 02:26:00,25.5,18.1,30.34,NE,45,0.0,1.0,73,0.00,,,0.00,Weather View 32 v70,2013-04-29 10:26:00,
2013-04-29 02:31:00,25.3,18.2,30.34,NE,45,0.0,1.0,74,0.00,,,0.00,Weather View 32 v70,2013-04-29 10:31:00,
2013-04-29 02:36:00,25.3,17.9,30.34,NE,45,0.0,1.0,73,0.00,,,0.00,Weather View 32 v70,2013-04-29 10:36:00,
2013-04-29 02:41:00,25.0,17.9,30.34,NE,45,0.0,1.0,74,0.00,,,0.00,Weather View 32 v70,2013-04-29 10:41:00,
2013-04-29 02:46:00,24.8,17.7,30.33,NE,45,0.0,1.0,74,0.00,,,0.00,Weather View 32 v70,2013-04-29 10:46:00,
2013-04-29 02:51:00,25.0,18.2,30.33,NE,45,0.0,1.0,75,0.00,,,0.00,Weather View 32 v70,2013-04-29 10:51:00,
2013-04-29 02:56:00,24.6,18.1,30.33,NE,45,0.0,1.0,76,0.00,,,0.00,Weather View 32 v70,2013-04-29 10:56:00,
2013-04-29 03:01:00,24.6,18.4,30.33,NE,45,0.0,1.0,77,0.00,,,0.00,Weather View 32 v70,2013-04-29 11:01:00,
2013-04-29 03:06:00,24.6,18.4,30.33,NE,45,0.0,1.0,77,0.00,,,0.00,Weather View 32 v70,2013-04-29 11:06:00,
2013-04-29 03:11:00,24.6,18.4,30.33,NE,45,0.0,1.0,77,0.00,,,0.00,Weather View 32 v70,2013-04-29 11:11:00,
2013-04-29 03:16:00,24.1,17.9,30.33,NE,45,0.0,1.0,77,0.00,,,0.00,Weather View 32 v70,2013-04-29 11:16:00,
2013-04-29 03:21:00,24.3,18.1,30.33,NE,45,0.0,1.0,77,0.00,,,0.00,Weather View 32 v70,2013-04-29 11:21:00,
2013-04-29 03:26:00,24.1,17.9,30.33,NE,45,0.0,0.0,77,0.00,,,0.00,Weather View 32 v70,2013-04-29 11:26:00,
2013-04-29 03:31:00,24.3,17.5,30.33,NE,45,0.0,0.0,75,0.00,,,0.00,Weather View 32 v70,2013-04-29 11:31:00,
2013-04-29 03:36:00,23.9,17.7,30.33,NE,45,0.0,0.0,77,0.00,,,0.00,Weather View 32 v70,2013-04-29 11:36:00,
2013-04-29 03:41:00,23.9,17.7,30.33,NE,45,0.0,0.0,77,0.00,,,0.00,Weather View 32 v70,2013-04-29 11:41:00,
2013-04-29 03:46:00,23.9,17.7,30.33,NE,45,0.0,0.0,77,0.00,,,0.00,Weather View 32 v70,2013-04-29 11:46:00,
2013-04-29 03:51:00,23.5,17.7,30.33,NE,45,0.0,0.0,78,0.00,,,0.00,Weather View 32 v70,2013-04-29 11:51:00,
2013-04-29 03:56:00,23.5,17.4,30.33,NE,45,0.0,0.0,77,0.00,,,0.00,Weather View 32 v70,2013-04-29 11:56:00,
2013-04-29 04:01:00,23.5,17.7,30.33,NE,45,0.0,0.0,78,0.00,,,0.00,Weather View 32 v70,2013-04-29 12:01:00,
2013-04-29 04:06:00,23.2,17.3,30.33,NE,45,0.0,0.0,78,0.00,,,0.00,Weather View 32 v70,2013-04-29 12:06:00,
2013-04-29 04:11:00,23.2,17.0,30.33,NE,45,0.0,0.0,77,0.00,,,0.00,Weather View 32 v70,2013-04-29 12:11:00,
2013-04-29 04:16:00,23.2,16.7,30.33,NE,45,0.0,0.0,76,0.00,,,0.00,Weather View 32 v70,2013-04-29 12:16:00,
2013-04-29 04:21:00,23.2,17.0,30.33,NE,45,0.0,0.0,77,0.00,,,0.00,Weather View 32 v70,2013-04-29 12:21:00,
2013-04-29 04:26:00,22.6,16.5,30.33,NE,45,0.0,0.0,77,0.00,,,0.00,Weather View 32 v70,2013-04-29 12:26:00,
2013-04-29 04:31:00,22.5,16.3,30.33,NE,45,0.0,0.0,77,0.00,,,0.00,Weather View 32 v70,2013-04-29 12:31:00,
2013-04-29 04:36:00,22.5,16.3,30.33,NE,45,0.0,0.0,77,0.00,,,0.00,Weather View 32 v70,2013-04-29 12:36:00,
2013-04-29 04:41:00,22.5,16.6,30.33,NE,45,0.0,0.0,78,0.00,,,0.00,Weather View 32 v70,2013-04-29 12:41:00,
2013-04-29 04:46:00,22.5,16.6,30.33,NE,45,0.0,0.0,78,0.00,,,0.00,Weather View 32 v70,2013-04-29 12:46:00,
2013-04-29 04:51:00,22.5,16.6,30.33,NE,45,0.0,0.0,78,0.00,,,0.00,Weather View 32 v70,2013-04-29 12:51:00,
2013-04-29 04:56:00,22.1,16.0,30.33,NE,45,0.0,0.0,77,0.00,,,0.00,Weather View 32 v70,2013-04-29 12:56:00,
2013-04-29 05:01:00,21.9,16.1,30.33,NE,45,0.0,0.0,78,0.00,,,0.00,Weather View 32 v70,2013-04-29 13:01:00,
2013-04-29 05:06:00,21.9,16.1,30.33,NE,45,0.0,0.0,78,0.00,,,0.00,Weather View 32 v70,2013-04-29 13:06:00,
2013-04-29 05:11:00,21.7,15.9,30.33,NE,45,0.0,0.0,78,0.00,,,0.00,Weather View 32 v70,2013-04-29 13:11:00,
2013-04-29 05:16:00,21.6,15.5,30.33,NE,45,0.0,0.0,77,0.00,,,0.00,Weather View 32 v70,2013-04-29 13:16:00,
2013-04-29 05:21:00,21.4,15.6,30.33,NE,45,0.0,0.0,78,0.00,,,0.00,Weather View 32 v70,2013-04-29 13:21:00,
2013-04-29 05:26:00,21.4,15.3,30.33,NE,45,0.0,0.0,77,0.00,,,0.00,Weather View 32 v70,2013-04-29 13:26:00,
2013-04-29 05:31:00,21.4,15.6,30.33,NE,45,0.0,0.0,78,0.00,,,0.00,Weather View 32 v70,2013-04-29 13:31:00,
2013-04-29 05:36:00,21.4,15.6,30.33,NE,45,0.0,0.0,78,0.00,,,0.00,Weather View 32 v70,2013-04-29 13:36:00,
2013-04-29 05:41:00,21.4,15.6,30.33,NE,45,0.0,0.0,78,0.00,,,0.00,Weather View 32 v70,2013-04-29 13:41:00,
2013-04-29 05:46:00,21.2,15.7,30.34,NE,45,0.0,0.0,79,0.00,,,0.00,Weather View 32 v70,2013-04-29 13:46:00,
2013-04-29 05:51:00,21.0,15.5,30.34,NE,45,0.0,0.0,79,0.00,,,0.00,Weather View 32 v70,2013-04-29 13:51:00,
2013-04-29 05:56:00,21.0,15.5,30.34,NE,45,0.0,0.0,79,0.00,,,0.00,Weather View 32 v70,2013-04-29 13:56:00,
2013-04-29 06:01:00,20.8,15.4,30.34,NE,45,0.0,0.0,79,0.00,,,0.00,Weather View 32 v70,2013-04-29 14:01:00,
2013-04-29 06:06:00,21.0,15.5,30.34,NE,45,0.0,0.0,79,0.00,,,0.00,Weather View 32 v70,2013-04-29 14:06:00,
2013-04-29 06:11:00,21.0,15.5,30.34,NE,45,0.0,0.0,79,0.00,,,0.00,Weather View 32 v70,2013-04-29 14:11:00,
2013-04-29 06:16:00,21.0,15.5,30.34,NE,45,0.0,0.0,79,0.00,,,0.00,Weather View 32 v70,2013-04-29 14:16:00,
2013-04-29 06:21:00,20.7,14.9,30.34,NE,45,0.0,0.0,78,0.00,,,0.00,Weather View 32 v70,2013-04-29 14:21:00,
2013-04-29 06:26:00,20.5,14.7,30.37,NE,45,0.0,0.0,78,0.00,,,0.00,Weather View 32 v70,2013-04-29 14:26:00,
2013-04-29 06:31:00,20.7,15.2,30.37,NE,45,0.0,0.0,79,0.00,,,0.00,Weather View 32 v70,2013-04-29 14:31:00,
2013-04-29 06:36:00,20.7,15.2,30.37,NE,45,0.0,0.0,79,0.00,,,0.00,Weather View 32 v70,2013-04-29 14:36:00,
2013-04-29 06:41:00,21.0,15.5,30.37,NE,45,0.0,0.0,79,0.00,,,0.00,Weather View 32 v70,2013-04-29 14:41:00,
2013-04-29 06:46:00,21.0,15.2,30.38,NE,45,0.0,0.0,78,0.00,,,0.00,Weather View 32 v70,2013-04-29 14:46:00,
2013-04-29 06:51:00,21.4,15.9,30.38,NE,45,0.0,0.0,79,0.00,,,0.00,Weather View 32 v70,2013-04-29 14:51:00,
2013-04-29 06:56:00,21.7,15.9,30.38,NE,45,0.0,0.0,78,0.00,,,0.00,Weather View 32 v70,2013-04-29 14:56:00,
2013-04-29 07:01:00,21.9,16.1,30.38,NE,45,0.0,0.0,78,0.00,,,0.00,Weather View 32 v70,2013-04-29 15:01:00,
2013-04-29 07:06:00,22.1,16.3,30.38,NE,45,0.0,0.0,78,0.00,,,0.00,Weather View 32 v70,2013-04-29 15:06:00,
2013-04-29 07:11:00,22.5,16.6,30.38,NE,45,0.0,0.0,78,0.00,,,0.00,Weather View 32 v70,2013-04-29 15:11:00,
2013-04-29 07:16:00,22.6,16.5,30.38,NE,45,0.0,0.0,77,0.00,,,0.00,Weather View 32 v70,2013-04-29 15:16:00,
2013-04-29 07:21:00,23.2,17.0,30.38,NE,45,0.0,0.0,77,0.00,,,0.00,Weather View 32 v70,2013-04-29 15:21:00,
2013-04-29 07:26:00,23.2,16.7,30.38,NE,45,0.0,0.0,76,0.00,,,0.00,Weather View 32 v70,2013-04-29 15:26:00,
2013-04-29 07:31:00,23.4,17.2,30.38,NE,45,0.0,0.0,77,0.00,,,0.00,Weather View 32 v70,2013-04-29 15:31:00,
2013-04-29 07:36:00,23.9,17.7,30.38,NE,45,0.0,0.0,77,0.00,,,0.00,Weather View 32 v70,2013-04-29 15:36:00,
2013-04-29 07:41:00,23.9,17.7,30.38,NE,45,0.0,0.0,77,0.00,,,0.00,Weather View 32 v70,2013-04-29 15:41:00,
2013-04-29 07:46:00,24.3,18.1,30.38,NE,45,0.0,0.0,77,0.00,,,0.00,Weather View 32 v70,2013-04-29 15:46:00,
2013-04-29 07:51:00,24.6,18.4,30.38,NE,45,0.0,0.0,77,0.00,,,0.00,Weather View 32 v70,2013-04-29 15:51:00,
2013-04-29 07:56:00,25.0,18.5,30.38,NE,45,0.0,0.0,76,0.00,,,0.00,Weather View 32 v70,2013-04-29 15:56:00,
2013-04-29 08:01:00,25.5,18.7,30.38,NE,45,0.0,0.0,75,0.00,,,0.00,Weather View 32 v70,2013-04-29 16:01:00,
2013-04-29 08:06:00,26.1,18.9,30.38,NE,45,0.0,0.0,74,0.00,,,0.00,Weather View 32 v70,2013-04-29 16:06:00,
2013-04-29 08:11:00,26.6,19.1,30.38,NE,45,0.0,0.0,73,0.00,,,0.00,Weather View 32 v70,2013-04-29 16:11:00,
2013-04-29 08:16:00,27.0,19.5,30.38,NE,45,1.0,1.0,73,0.00,,,0.00,Weather View 32 v70,2013-04-29 16:16:00,
2013-04-29 08:21:00,27.5,19.3,30.38,NE,45,1.0,1.0,71,0.00,,,0.00,Weather View 32 v70,2013-04-29 16:21:00,
2013-04-29 08:26:00,27.9,19.3,30.39,NE,45,0.0,1.0,70,0.00,,,0.00,Weather View 32 v70,2013-04-29 16:26:00,
2013-04-29 08:31:00,28.6,20.0,30.39,NE,45,0.0,1.0,70,0.00,,,0.00,Weather View 32 v70,2013-04-29 16:31:00,
2013-04-29 08:36:00,29.1,19.9,30.39,NE,45,0.0,1.0,68,0.00,,,0.00,Weather View 32 v70,2013-04-29 16:36:00,
2013-04-29 08:41:00,29.8,20.6,30.39,NE,45,0.0,1.0,68,0.00,,,0.00,Weather View 32 v70,2013-04-29 16:41:00,
2013-04-29 08:46:00,30.2,20.6,30.39,NE,45,0.0,1.0,67,0.00,,,0.00,Weather View 32 v70,2013-04-29 16:46:00,
2013-04-29 08:51:00,31.1,21.4,30.39,NE,45,0.0,1.0,67,0.00,,,0.00,Weather View 32 v70,2013-04-29 16:51:00,
2013-04-29 08:56:00,31.5,21.4,30.39,NE,45,0.0,1.0,66,0.00,,,0.00,Weather View 32 v70,2013-04-29 16:56:00,
2013-04-29 09:01:00,32.4,21.9,30.39,NE,45,0.0,1.0,65,0.00,,,0.00,Weather View 32 v70,2013-04-29 17:01:00,
2013-04-29 09:06:00,32.7,21.9,30.38,NE,45,0.0,1.0,64,0.00,,,0.00,Weather View 32 v70,2013-04-29 17:06:00,
2013-04-29 09:11:00,33.8,21.8,30.38,NE,45,0.0,1.0,61,0.00,,,0.00,Weather View 32 v70,2013-04-29 17:11:00,
2013-04-29 09:16:00,34.3,22.3,30.38,NE,45,1.0,1.0,61,0.00,,,0.00,Weather View 32 v70,2013-04-29 17:16:00,
2013-04-29 09:21:00,34.9,22.8,30.38,NE,45,1.0,1.0,61,0.00,,,0.00,Weather View 32 v70,2013-04-29 17:21:00,
2013-04-29 09:26:00,35.6,23.1,30.38,NE,45,1.0,1.0,60,0.00,,,0.00,Weather View 32 v70,2013-04-29 17:26:00,
2013-04-29 09:31:00,36.3,22.9,30.38,NE,45,1.0,1.0,58,0.00,,,0.00,Weather View 32 v70,2013-04-29 17:31:00,
2013-04-29 09:36:00,36.9,23.0,30.38,NE,45,1.0,1.0,57,0.00,,,0.00,Weather View 32 v70,2013-04-29 17:36:00,
2013-04-29 09:41:00,37.8,23.5,30.38,NE,45,1.0,1.0,56,0.00,,,0.00,Weather View 32 v70,2013-04-29 17:41:00,
2013-04-29 09:46:00,38.5,23.3,30.37,NE,45,1.0,1.0,54,0.00,,,0.00,Weather View 32 v70,2013-04-29 17:46:00,
2013-04-29 09:51:00,40.6,23.9,30.37,NE,45,1.0,1.0,51,0.00,,,0.00,Weather View 32 v70,2013-04-29 17:51:00,
2013-04-29 09:56:00,42.1,24.8,30.37,NE,45,1.0,1.0,50,0.00,,,0.00,Weather View 32 v70,2013-04-29 17:56:00,
2013-04-29 10:01:00,44.8,24.7,30.37,NE,45,1.0,1.0,45,0.00,,,0.00,Weather View 32 v70,2013-04-29 18:01:00,
2013-04-29 10:06:00,45.7,25.0,30.37,NE,45,1.0,1.0,44,0.00,,,0.00,Weather View 32 v70,2013-04-29 18:06:00,
2013-04-29 10:11:00,46.9,23.8,30.37,NE,45,1.0,1.0,40,0.00,,,0.00,Weather View 32 v70,2013-04-29 18:11:00,
2013-04-29 10:16:00,46.6,23.5,30.37,NE,45,1.0,1.0,40,0.00,,,0.00,Weather View 32 v70,2013-04-29 18:16:00,
2013-04-29 10:21:00,47.1,23.4,30.37,NE,45,1.0,2.0,39,0.00,,,0.00,Weather View 32 v70,2013-04-29 18:21:00,
2013-04-29 10:26:00,49.1,24.5,30.36,NE,45,1.0,2.0,38,0.00,,,0.00,Weather View 32 v70,2013-04-29 18:26:00,
2013-04-29 10:31:00,50.0,24.7,30.36,NE,45,1.0,2.0,37,0.00,,,0.00,Weather View 32 v70,2013-04-29 18:31:00,
2013-04-29 10:36:00,49.5,23.6,30.36,NE,45,1.0,2.0,36,0.00,,,0.00,Weather View 32 v70,2013-04-29 18:36:00,
2013-04-29 10:41:00,51.1,24.3,30.36,NE,45,1.0,2.0,35,0.00,,,0.00,Weather View 32 v70,2013-04-29 18:41:00,
2013-04-29 10:46:00,49.1,22.6,30.35,NE,45,2.0,2.0,35,0.00,,,0.00,Weather View 32 v70,2013-04-29 18:46:00,
2013-04-29 10:51:00,49.1,22.6,30.35,NE,45,2.0,2.0,35,0.00,,,0.00,Weather View 32 v70,2013-04-29 18:51:00,
2013-04-29 10:56:00,50.0,22.7,30.35,NE,45,2.0,2.0,34,0.00,,,0.00,Weather View 32 v70,2013-04-29 18:56:00,
2013-04-29 11:01:00,51.3,23.1,30.35,NE,45,2.0,2.0,33,0.00,,,0.00,Weather View 32 v70,2013-04-29 19:01:00,
2013-04-29 11:06:00,48.2,21.8,30.35,NE,45,2.0,2.0,35,0.00,,,0.00,Weather View 32 v70,2013-04-29 19:06:00,
2013-04-29 11:11:00,47.1,21.5,30.35,NE,45,2.0,2.0,36,0.00,,,0.00,Weather View 32 v70,2013-04-29 19:11:00,
2013-04-29 11:16:00,46.4,21.5,30.35,NE,45,2.0,2.0,37,0.00,,,0.00,Weather View 32 v70,2013-04-29 19:16:00,
2013-04-29 11:21:00,45.9,21.0,30.35,NE,45,2.0,2.0,37,0.00,,,0.00,Weather View 32 v70,2013-04-29 19:21:00,
2013-04-29 11:26:00,47.3,21.7,30.35,NE,45,2.0,2.0,36,0.00,,,0.00,Weather View 32 v70,2013-04-29 19:26:00,
2013-04-29 11:31:00,48.6,22.1,30.35,NE,45,2.0,2.0,35,0.00,,,0.00,Weather View 32 v70,2013-04-29 19:31:00,
2013-04-29 11:36:00,54.1,24.1,30.35,NE,45,2.0,2.0,31,0.00,,,0.00,Weather View 32 v70,2013-04-29 19:36:00,
2013-04-29 11:41:00,56.1,24.2,30.35,NE,45,2.0,2.0,29,0.00,,,0.00,Weather View 32 v70,2013-04-29 19:41:00,
2013-04-29 11:46:00,57.9,24.9,30.35,NE,45,2.0,2.0,28,0.00,,,0.00,Weather View 32 v70,2013-04-29 19:46:00,
2013-04-29 11:51:00,59.9,25.8,30.35,NE,45,2.0,2.0,27,0.00,,,0.00,Weather View 32 v70,2013-04-29 19:51:00,
2013-04-29 11:56:00,60.3,24.2,30.35,NE,45,2.0,2.0,25,0.00,,,0.00,Weather View 32 v70,2013-04-29 19:56:00,
2013-04-29 12:01:00,59.5,23.6,30.35,NNE,22,3.0,3.0,25,0.00,,,0.00,Weather View 32 v70,2013-04-29 20:01:00,
2013-04-29 12:06:00,59.7,23.8,30.35,NNE,22,3.0,3.0,25,0.00,,,0.00,Weather View 32 v70,2013-04-29 20:06:00,
2013-04-29 12:11:00,59.7,23.8,30.35,NNE,22,3.0,3.0,25,0.00,,,0.00,Weather View 32 v70,2013-04-29 20:11:00,
2013-04-29 12:16:00,60.8,23.7,30.35,NNE,22,2.0,3.0,24,0.00,,,0.00,Weather View 32 v70,2013-04-29 20:16:00,
2013-04-29 12:21:00,61.0,23.9,30.35,NNE,22,2.0,3.0,24,0.00,,,0.00,Weather View 32 v70,2013-04-29 20:21:00,
2013-04-29 12:26:00,61.7,23.4,30.35,NNE,22,2.0,3.0,23,0.00,,,0.00,Weather View 32 v70,2013-04-29 20:26:00,
2013-04-29 12:31:00,60.1,23.1,30.35,NNE,22,3.0,3.0,24,0.00,,,0.00,Weather View 32 v70,2013-04-29 20:31:00,
2013-04-29 12:36:00,59.5,22.6,30.35,NNE,22,2.0,3.0,24,0.00,,,0.00,Weather View 32 v70,2013-04-29 20:36:00,
2013-04-29 12:41:00,58.8,22.0,30.35,NNE,22,2.0,3.0,24,0.00,,,0.00,Weather View 32 v70,2013-04-29 20:41:00,
2013-04-29 12:46:00,57.0,20.5,30.34,NNE,22,2.0,3.0,24,0.00,,,0.00,Weather View 32 v70,2013-04-29 20:46:00,
2013-04-29 12:51:00,57.9,22.2,30.34,NNE,22,2.0,3.0,25,0.00,,,0.00,Weather View 32 v70,2013-04-29 20:51:00,
2013-04-29 12:56:00,60.1,24.1,30.34,NNE,22,2.0,3.0,25,0.00,,,0.00,Weather View 32 v70,2013-04-29 20:56:00,
2013-04-29 13:01:00,62.1,23.7,30.34,NNE,22,2.0,3.0,23,0.00,,,0.00,Weather View 32 v70,2013-04-29 21:01:00,
2013-04-29 13:06:00,62.1,23.7,30.34,NNE,22,2.0,3.0,23,0.00,,,0.00,Weather View 32 v70,2013-04-29 21:06:00,
2013-04-29 13:11:00,60.6,22.5,30.34,NNE,22,2.0,3.0,23,0.00,,,0.00,Weather View 32 v70,2013-04-29 21:11:00,
2013-04-29 13:16:00,59.5,20.6,30.34,NNE,22,1.0,3.0,22,0.00,,,0.00,Weather View 32 v70,2013-04-29 21:16:00,
2013-04-29 13:21:00,59.2,22.3,30.34,NNE,22,2.0,3.0,24,0.00,,,0.00,Weather View 32 v70,2013-04-29 21:21:00,
2013-04-29 13:26:00,59.2,22.3,30.34,NNE,22,2.0,3.0,24,0.00,,,0.00,Weather View 32 v70,2013-04-29 21:26:00,
2013-04-29 13:31:00,61.7,24.5,30.34,NE,45,3.0,3.0,24,0.00,,,0.00,Weather View 32 v70,2013-04-29 21:31:00,
2013-04-29 13:36:00,60.3,22.2,30.34,NE,45,3.0,3.0,23,0.00,,,0.00,Weather View 32 v70,2013-04-29 21:36:00,
2013-04-29 13:41:00,61.5,23.3,30.34,NE,45,3.0,3.0,23,0.00,,,0.00,Weather View 32 v70,2013-04-29 21:41:00,
2013-04-29 13:46:00,62.4,24.1,30.34,NE,45,2.0,3.0,23,0.00,,,0.00,Weather View 32 v70,2013-04-29 21:46:00,
2013-04-29 13:51:00,60.3,22.2,30.34,NNW,338,2.0,3.0,23,0.00,,,0.00,Weather View 32 v70,2013-04-29 21:51:00,
2013-04-29 13:56:00,60.4,23.4,30.34,NNW,338,2.0,3.0,24,0.00,,,0.00,Weather View 32 v70,2013-04-29 21:56:00,
2013-04-29 14:01:00,61.5,24.3,30.34,NE,45,2.0,3.0,24,0.00,,,0.00,Weather View 32 v70,2013-04-29 22:01:00,
2013-04-29 14:06:00,54.5,20.3,30.33,NE,45,2.0,3.0,26,0.00,,,0.00,Weather View 32 v70,2013-04-29 22:06:00,
2013-04-29 14:12:00,53.8,20.5,30.33,NE,45,2.0,3.0,27,0.00,,,0.00,Weather View 32 v70,2013-04-29 22:12:00,
2013-04-29 14:17:00,54.0,20.7,30.33,NE,45,2.0,3.0,27,0.00,,,0.00,Weather View 32 v70,2013-04-29 22:17:00,
2013-04-29 14:22:00,53.6,21.2,30.33,NE,45,3.0,3.0,28,0.00,,,0.00,Weather View 32 v70,2013-04-29 22:22:00,
2013-04-29 14:27:00,52.7,21.3,30.34,NE,45,4.0,4.0,29,0.00,,,0.00,Weather View 32 v70,2013-04-29 22:27:00,
2013-04-29 14:32:00,52.0,21.5,30.34,NNE,22,3.0,4.0,30,0.00,,,0.00,Weather View 32 v70,2013-04-29 22:32:00,
2013-04-29 14:37:00,51.6,21.1,30.34,NE,45,3.0,4.0,30,0.00,,,0.00,Weather View 32 v70,2013-04-29 22:37:00,
2013-04-29 14:42:00,49.8,21.1,30.34,NNE,22,4.0,4.0,32,0.00,,,0.00,Weather View 32 v70,2013-04-29 22:42:00,
2013-04-29 14:47:00,49.6,20.9,30.34,NE,45,5.0,5.0,32,0.00,,,0.00,Weather View 32 v70,2013-04-29 22:47:00,
2013-04-29 14:52:00,48.4,21.3,30.34,NE,45,5.0,5.0,34,0.00,,,0.00,Weather View 32 v70,2013-04-29 22:52:00,
2013-04-29 14:57:00,47.8,20.8,30.34,NE,45,5.0,5.0,34,0.00,,,0.00,Weather View 32 v70,2013-04-29 22:57:00,
2013-04-29 15:02:00,47.7,21.3,30.34,NE,45,4.0,5.0,35,0.00,,,0.00,Weather View 32 v70,2013-04-29 23:02:00,
2013-04-29 15:08:00,47.8,21.5,30.34,NE,45,4.0,5.0,35,0.00,,,0.00,Weather View 32 v70,2013-04-29 23:08:00,
2013-04-29 15:13:00,47.5,21.1,30.35,ENE,68,4.0,5.0,35,0.00,,,0.00,Weather View 32 v70,2013-04-29 23:13:00,
2013-04-29 15:18:00,47.3,20.3,30.35,NE,45,3.0,5.0,34,0.00,,,0.00,Weather View 32 v70,2013-04-29 23:18:00,
2013-04-29 15:23:00,48.0,20.9,30.35,NE,45,3.0,5.0,34,0.00,,,0.00,Weather View 32 v70,2013-04-29 23:23:00,
2013-04-29 15:28:00,48.2,21.1,30.35,NE,45,4.0,5.0,34,0.00,,,0.00,Weather View 32 v70,2013-04-29 23:28:00,
2013-04-29 15:33:00,47.8,20.1,30.35,ENE,68,4.0,5.0,33,0.00,,,0.00,Weather View 32 v70,2013-04-29 23:33:00,
2013-04-29 16:40:00,46.2,22.0,30.34,NE,45,3.0,4.0,38,0.00,,,0.00,Weather View 32 v70,2013-04-30 00:40:00,
2013-04-29 16:45:00,46.0,21.2,30.34,NE,45,3.0,4.0,37,0.00,,,0.00,Weather View 32 v70,2013-04-30 00:45:00,
2013-04-29 16:55:00,46.2,21.3,30.34,NE,45,3.0,4.0,37,0.00,,,0.00,Weather View 32 v70,2013-04-30 00:55:00,
2013-04-29 17:05:00,46.0,21.2,30.34,NE,45,4.0,4.0,37,0.00,,,0.00,Weather View 32 v70,2013-04-30 01:05:00,
2013-04-29 17:10:00,46.2,21.3,30.34,NE,45,4.0,4.0,37,0.00,,,0.00,Weather View 32 v70,2013-04-30 01:10:00,
2013-04-29 17:15:00,46.2,22.0,30.34,NE,45,4.0,4.0,38,0.00,,,0.00,Weather View 32 v70,2013-04-30 01:15:00,
2013-04-29 17:26:00,45.5,20.7,30.34,NE,45,3.0,4.0,37,0.00,,,0.00,Weather View 32 v70,2013-04-30 01:26:00,
2013-04-29 17:46:00,44.4,20.4,30.34,NE,45,4.0,5.0,38,0.00,,,0.00,Weather View 32 v70,2013-04-30 01:46:00,
2013-04-29 17:51:00,44.4,20.4,30.34,NE,45,3.0,5.0,38,0.00,,,0.00,Weather View 32 v70,2013-04-30 01:51:00,
2013-04-29 17:56:00,44.8,20.7,30.34,NE,45,3.0,5.0,38,0.00,,,0.00,Weather View 32 v70,2013-04-30 01:56:00,
2013-04-29 18:01:00,44.4,20.4,30.34,NE,45,3.0,5.0,38,0.00,,,0.00,Weather View 32 v70,2013-04-30 02:01:00,
2013-04-29 18:09:00,44.2,19.6,30.34,NNE,22,3.0,5.0,37,0.00,,,0.00,Weather View 32 v70,2013-04-30 02:09:00,
2013-04-29 18:14:00,44.4,19.7,30.34,NE,45,3.0,5.0,37,0.00,,,0.00,Weather View 32 v70,2013-04-30 02:14:00,
2013-04-29 18:20:00,44.8,20.1,30.34,NE,45,3.0,5.0,37,0.00,,,0.00,Weather View 32 v70,2013-04-30 02:20:00,
2013-04-29 18:25:00,44.2,19.6,30.34,NE,45,3.0,5.0,37,0.00,,,0.00,Weather View 32 v70,2013-04-30 02:25:00,
2013-04-29 18:30:00,44.1,19.4,30.33,NNE,22,3.0,5.0,37,0.00,,,0.00,Weather View 32 v70,2013-04-30 02:30:00,
2013-04-29 18:35:00,43.7,17.8,30.33,NNE,22,3.0,5.0,35,0.00,,,0.00,Weather View 32 v70,2013-04-30 02:35:00,
2013-04-29 18:40:00,44.1,18.8,30.33,NNE,22,3.0,5.0,36,0.00,,,0.00,Weather View 32 v70,2013-04-30 02:40:00,
2013-04-29 18:45:00,43.7,19.1,30.33,NE,45,3.0,4.0,37,0.00,,,0.00,Weather View 32 v70,2013-04-30 02:45:00,
2013-04-29 18:50:00,43.5,18.9,30.33,NE,45,3.0,4.0,37,0.00,,,0.00,Weather View 32 v70,2013-04-30 02:50:00,
2013-04-29 18:55:00,43.5,18.9,30.33,NE,45,3.0,4.0,37,0.00,,,0.00,Weather View 32 v70,2013-04-30 02:55:00,
2013-04-29 19:00:00,43.2,18.6,30.33,NE,45,2.0,4.0,37,0.00,,,0.00,Weather View 32 v70,2013-04-30 03:00:00,
2013-04-29 19:06:00,43.3,18.8,30.33,NE,45,2.0,4.0,37,0.00,,,0.00,Weather View 32 v70,2013-04-30 03:06:00,
2013-04-29 19:11:00,43.5,18.9,30.33,NE,45,2.0,4.0,37,0.00,,,0.00,Weather View 32 v70,2013-04-30 03:11:00,
2013-04-29 19:16:00,43.5,18.3,30.33,NE,45,2.0,4.0,36,0.00,,,0.00,Weather View 32 v70,2013-04-30 03:16:00,
2013-04-29 19:21:00,43.3,18.8,30.33,NE,45,3.0,3.0,37,0.00,,,0.00,Weather View 32 v70,2013-04-30 03:21:00,
2013-04-29 19:26:00,43.0,18.5,30.33,NE,45,2.0,3.0,37,0.00,,,0.00,Weather View 32 v70,2013-04-30 03:26:00,
2013-04-29 19:31:00,43.0,18.5,30.33,NE,45,1.0,3.0,37,0.00,,,0.00,Weather View 32 v70,2013-04-30 03:31:00,
2013-04-29 19:36:00,42.8,18.3,30.33,NE,45,1.0,3.0,37,0.00,,,0.00,Weather View 32 v70,2013-04-30 03:36:00,
2013-04-29 19:41:00,42.8,18.9,30.33,NNE,22,2.0,3.0,38,0.00,,,0.00,Weather View 32 v70,2013-04-30 03:41:00,
2013-04-29 19:46:00,43.3,19.4,30.33,NNE,22,2.0,3.0,38,0.00,,,0.00,Weather View 32 v70,2013-04-30 03:46:00,
2013-04-29 19:51:00,43.3,18.8,30.33,NE,45,2.0,3.0,37,0.00,,,0.00,Weather View 32 v70,2013-04-30 03:51:00,
2013-04-29 19:56:00,43.3,19.4,30.33,NE,45,2.0,3.0,38,0.00,,,0.00,Weather View 32 v70,2013-04-30 03:56:00,
2013-04-29 20:01:00,43.3,18.8,30.33,NE,45,2.0,3.0,37,0.00,,,0.00,Weather View 32 v70,2013-04-30 04:01:00,
2013-04-29 20:06:00,43.3,19.4,30.32,NE,45,2.0,3.0,38,0.00,,,0.00,Weather View 32 v70,2013-04-30 04:06:00,
2013-04-29 20:11:00,43.0,17.8,30.32,NE,45,2.0,3.0,36,0.00,,,0.00,Weather View 32 v70,2013-04-30 04:11:00,
2013-04-29 20:16:00,42.8,18.9,30.32,NE,45,2.0,3.0,38,0.00,,,0.00,Weather View 32 v70,2013-04-30 04:16:00,
2013-04-29 20:21:00,43.0,19.1,30.32,NE,45,2.0,3.0,38,0.00,,,0.00,Weather View 32 v70,2013-04-30 04:21:00,
2013-04-29 20:26:00,42.4,18.6,30.32,NE,45,2.0,2.0,38,0.00,,,0.00,Weather View 32 v70,2013-04-30 04:26:00,
2013-04-29 20:31:00,42.1,18.3,30.32,NE,45,2.0,3.0,38,0.00,,,0.00,Weather View 32 v70,2013-04-30 04:31:00,
2013-04-29 20:36:00,42.1,18.3,30.32,NE,45,2.0,3.0,38,0.00,,,0.00,Weather View 32 v70,2013-04-30 04:36:00,
2013-04-29 20:41:00,42.1,18.9,30.32,NE,45,2.0,3.0,39,0.00,,,0.00,Weather View 32 v70,2013-04-30 04:41:00,
2013-04-29 20:46:00,41.9,18.7,30.32,NE,45,2.0,3.0,39,0.00,,,0.00,Weather View 32 v70,2013-04-30 04:46:00,
2013-04-29 20:51:00,41.4,18.2,30.32,NE,45,2.0,3.0,39,0.00,,,0.00,Weather View 32 v70,2013-04-30 04:51:00,
2013-04-29 20:56:00,41.2,18.1,30.32,NE,45,2.0,3.0,39,0.00,,,0.00,Weather View 32 v70,2013-04-30 04:56:00,
2013-04-29 21:01:00,40.8,18.3,30.32,NE,45,2.0,3.0,40,0.00,,,0.00,Weather View 32 v70,2013-04-30 05:01:00,
2013-04-29 21:06:00,40.8,18.3,30.32,NE,45,2.0,3.0,40,0.00,,,0.00,Weather View 32 v70,2013-04-30 05:06:00,
2013-04-29 21:11:00,40.8,18.9,30.32,NE,45,1.0,3.0,41,0.00,,,0.00,Weather View 32 v70,2013-04-30 05:11:00,
2013-04-29 21:16:00,40.5,18.6,30.32,NE,45,1.0,3.0,41,0.00,,,0.00,Weather View 32 v70,2013-04-30 05:16:00,
2013-04-29 21:21:00,39.9,18.1,30.32,NE,45,1.0,3.0,41,0.00,,,0.00,Weather View 32 v70,2013-04-30 05:21:00,
2013-04-29 21:26:00,39.6,17.8,30.32,NE,45,1.0,3.0,41,0.00,,,0.00,Weather View 32 v70,2013-04-30 05:26:00,
2013-04-29 21:31:00,39.2,20.1,30.32,NE,45,0.0,2.0,46,0.00,,,0.00,Weather View 32 v70,2013-04-30 05:31:00,
2013-04-29 21:36:00,38.5,20.5,30.32,NE,45,0.0,2.0,48,0.00,,,0.00,Weather View 32 v70,2013-04-30 05:36:00,
2013-04-29 21:41:00,37.8,20.8,30.32,NE,45,0.0,2.0,50,0.00,,,0.00,Weather View 32 v70,2013-04-30 05:41:00,
2013-04-29 21:46:00,37.0,20.6,30.32,NE,45,0.0,2.0,51,0.00,,,0.00,Weather View 32 v70,2013-04-30 05:46:00,
2013-04-29 21:51:00,36.1,19.7,30.32,NE,45,0.0,2.0,51,0.00,,,0.00,Weather View 32 v70,2013-04-30 05:51:00,
2013-04-29 21:56:00,35.4,19.5,30.32,NE,45,0.0,2.0,52,0.00,,,0.00,Weather View 32 v70,2013-04-30 05:56:00,
2013-04-29 22:01:00,34.9,19.9,30.32,NE,45,0.0,2.0,54,0.00,,,0.00,Weather View 32 v70,2013-04-30 06:01:00,
2013-04-29 22:06:00,34.3,20.3,30.32,NE,45,0.0,2.0,56,0.00,,,0.00,Weather View 32 v70,2013-04-30 06:06:00,
2013-04-29 22:11:00,34.0,19.9,30.32,NE,45,0.0,1.0,56,0.00,,,0.00,Weather View 32 v70,2013-04-30 06:11:00,
2013-04-29 22:16:00,33.4,19.8,30.32,NE,45,0.0,1.0,57,0.00,,,0.00,Weather View 32 v70,2013-04-30 06:16:00,
2013-04-29 22:21:00,33.1,19.9,30.32,NE,45,0.0,1.0,58,0.00,,,0.00,Weather View 32 v70,2013-04-30 06:21:00,
2013-04-29 22:26:00,32.7,20.0,30.28,NE,45,0.0,1.0,59,0.00,,,0.00,Weather View 32 v70,2013-04-30 06:26:00,
2013-04-29 22:31:00,32.5,19.8,30.28,NE,45,0.0,0.0,59,0.00,,,0.00,Weather View 32 v70,2013-04-30 06:31:00,
2013-04-29 22:36:00,32.0,19.7,30.28,NE,45,0.0,0.0,60,0.00,,,0.00,Weather View 32 v70,2013-04-30 06:36:00,
2013-04-29 22:41:00,31.8,19.5,30.28,NE,45,0.0,0.0,60,0.00,,,0.00,Weather View 32 v70,2013-04-30 06:41:00,
2013-04-29 22:46:00,31.3,19.0,30.28,NE,45,0.0,0.0,60,0.00,,,0.00,Weather View 32 v70,2013-04-30 06:46:00,
2013-04-29 22:51:00,31.1,19.2,30.28,NE,45,1.0,1.0,61,0.00,,,0.00,Weather View 32 v70,2013-04-30 06:51:00,
2013-04-29 22:56:00,31.1,19.6,30.28,NE,45,1.0,1.0,62,0.00,,,0.00,Weather View 32 v70,2013-04-30 06:56:00,
2013-04-29 23:01:00,30.6,19.5,30.28,NE,45,0.0,1.0,63,0.00,,,0.00,Weather View 32 v70,2013-04-30 07:01:00,
2013-04-29 23:06:00,30.4,19.3,30.28,NE,45,0.0,1.0,63,0.00,,,0.00,Weather View 32 v70,2013-04-30 07:06:00,
2013-04-29 23:11:00,30.4,19.7,30.28,NE,45,0.0,1.0,64,0.00,,,0.00,Weather View 32 v70,2013-04-30 07:11:00,
2013-04-29 23:16:00,30.4,20.0,30.28,NE,45,0.0,1.0,65,0.00,,,0.00,Weather View 32 v70,2013-04-30 07:16:00,
2013-04-29 23:21:00,30.4,20.0,30.28,NE,45,0.0,1.0,65,0.00,,,0.00,Weather View 32 v70,2013-04-30 07:21:00,
2013-04-29 23:26:00,30.0,19.7,30.27,NE,45,0.0,1.0,65,0.00,,,0.00,Weather View 32 v70,2013-04-30 07:26:00,
2013-04-29 23:31:00,30.0,19.3,30.27,NE,45,1.0,1.0,64,0.00,,,0.00,Weather View 32 v70,2013-04-30 07:31:00,
2013-04-29 23:36:00,30.0,20.0,30.27,NE,45,1.0,1.0,66,0.00,,,0.00,Weather View 32 v70,2013-04-30 07:36:00,
2013-04-29 23:41:00,29.8,19.9,30.27,NE,45,0.0,1.0,66,0.00,,,0.00,Weather View 32 v70,2013-04-30 07:41:00,
2013-04-29 23:46:00,29.7,19.7,30.28,NE,45,0.0,1.0,66,0.00,,,0.00,Weather View 32 v70,2013-04-30 07:46:00,
2013-04-29 23:51:00,29.7,20.0,30.28,NE,45,0.0,1.0,67,0.00,,,0.00,Weather View 32 v70,2013-04-30 07:51:00,
2013-04-29 23:56:00,29.7,19.7,30.28,NE,45,0.0,1.0,66,0.00,,,0.00,Weather View 32 v70,2013-04-30 07:56:00,